Skip Page Navigation
NASA JPL Caltech
NASA Logo - Jet Propulsion Laboratory + View the NASA Portal
+ Center for Near-Earth Object Studies
JPL Home Earth Solar System Stars & Galaxies Technology
JPL Solar System Dynamics
BODIES ORBITS EPHEMERIDES TOOLS PHYSICAL DATA DISCOVERY FAQ SITE MAP
JPL Small-Body Database Browser
Search: [ help ]  
134011 (2004 VO36)
Classification: Main-belt Asteroid          SPK-ID: 2134011
Ephemeris | Orbit Diagram | Orbital Elements | Mission Design | Physical Parameters | Discovery Circumstances | Close-Approach Data ]

[ show orbit diagram ]
Orbital Elements at Epoch 2459000.5 (2020-May-31.0) TDB
Reference: JPL 23 (heliocentric ecliptic J2000)
 Element Value Uncertainty (1-sigma)   Units 
e .1805060469105906 4.0539e-08  
a 2.426585446149713 1.5269e-08 au
q 1.988572099774456 9.9998e-08 au
i 6.789064283354597 7.5024e-06 deg
node 46.74468060538923 4.0922e-05 deg
peri 228.3629149154725 4.6137e-05 deg
M 160.4792965142939 2.1358e-05 deg
tp 2458385.027970752159
(2018-Sep-23.52797075)
8.0508e-05 TDB
period 1380.676108020497
3.78
1.3031e-05
3.568e-08
d
yr
n .260741819104945 2.461e-09 deg/d
Q 2.864598792524969 1.8025e-08 au
  Orbit Determination Parameters
   # obs. used (total)      543  
   data-arc span      13001 days (35.59 yr)  
   first obs. used      1984-06-21  
   last obs. used      2020-01-25  
   planetary ephem.      DE431  
   SB-pert. ephem.      SB431-N16  
   condition code      0  
   norm. resid. RMS      .57554  
   source      ORB  
   producer      Otto Matic  
   solution date      2020-Feb-24 07:26:49  

Additional Information
 Earth MOID = .980071 au 
 Jupiter MOID = 2.26319 au 
 T_jup = 3.478 
[ show covariance matrix ]

Ephemeris | Orbit Diagram | Orbital Elements | Mission Design | Physical Parameters | Discovery Circumstances | Close-Approach Data ]

Physical Parameter Table
Parameter Symbol Value Units Sigma Reference Notes
absolute magnitude H 16.0   n/a MPO453824  

134011 (2004 VO36)          Discovered 2004-Nov-04 by Spacewatch at Kitt Peak
Reference: 20060711/Numbers.arcLast Updated: 2006-07-17

[ show close-approach data ]
Alternate Designations
 2004 VO36 = 1984 ME 
Ephemeris | Orbit Diagram | Orbital Elements | Mission Design | Physical Parameters | Discovery Circumstances | Close-Approach Data ]
ABOUT SSD CREDITS/AWARDS PRIVACY/COPYRIGHT GLOSSARY LINKS
FirstGov 2020-Oct-24 04:58 UT
(server date/time)  
NASA Home Page
Site Manager:   Ryan S. Park
Webmaster  Alan B. Chamberlin